Дата Пункты Температура Давл., мм. Влажн., % Ветер Погодные явления
Воздуха Воды Направл. Скорость
21.09.17 09:00 Одесса 21.0 21.0 753 48 З 3 21 час
21.09.17 06:00 Одесса 22.0 21.0 752 90 Ю 2 18 часов
21.09.17 03:00 Одесса 24.0 21.0 752 87 Ю 3 15 часов
21.09.17 12:00 Одесса 23.0 21.0 752 89 Ю 3 12 часов
21.09.17 09:00 Одесса 22.0 21.0 752 95 Ю-В 5 09 часов
21.09.17 06:00 Одесса 22.0 21.0 752 96 Ю-В 5 06 часов
21.09.17 03:00 Одесса 22.0 21.0 753 95 Ю-В 2 03 часа
20.09.17 09:00 Одесса 21.0 21.0 753 92 Ю-В 3 21 час
20.09.17 06:00 Одесса 22.0 21.0 754 92 Ю-В 1 18 часов
20.09.17 03:00 Одесса 24.0 21.0 755 85 Ю-В 2 15 часов
20.09.17 12:00 Одесса 24.0 21.0 755 80 Ю-В 3 12 часов
20.09.17 09:00 Одесса 22.0 -1.0 755 81 В 4 09 часов
20.09.17 06:00 Одесса 21.0 21.0 755 78 В 4 06 часов
20.09.17 03:00 Одесса 22.0 21.0 755 68 В 6 03 часа
19.09.17 09:00 Одесса 23.0 21.0 756 69 С-В 2 21 час
19.09.17 06:00 Одесса 24.0 21.0 756 45 С-В 3 18 часов
19.09.17 03:00 Одесса 24.0 21.0 757 51 С-В 4 15 часов
19.09.17 12:00 Одесса 22.0 20.0 759 44 С-В 5 12 часов
19.09.17 09:00 Одесса 19.0 20.0 759 56 С-В 9 09 часов
19.09.17 06:00 Одесса 17.0 2.0 759 57 С 3 06 часов
Количество строк
1 2 3 4 5 6 7 8 9 10
Page 10 of 284